Date,TemperatureHighF,TemperatureAvgF,TemperatureLowF,DewpointHighF,DewpointAvgF,DewpointLowF,HumidityHigh,HumidityAvg,HumidityLow,PressureMaxIn,PressureMinIn,WindSpeedMaxMPH,WindSpeedAvgMPH,GustSpeedMaxMPH,PrecipitationSumIn
2013-5-1,85,73,60,57,53,51,73,51,34,30.08,29.97,8,4,16,0.00
2013-5-2,81,71,62,57,55,51,76,58,37,30.10,29.98,11,5,17,0.00
2013-5-3,75,67,60,60,57,54,96,72,50,29.99,29.82,12,6,25,0.16
2013-5-4,63,58,53,58,51,44,97,81,58,29.97,29.84,11,5,22,0.18
2013-5-5,54,52,51,53,51,50,98,96,94,29.97,29.86,8,4,18,0.74
2013-5-6,66,58,51,56,54,50,97,86,70,29.92,29.82,6,2,16,0.10
2013-5-7,72,64,57,56,55,53,92,72,53,29.95,29.89,6,2,11,0.05
2013-5-8,76,68,58,59,56,52,93,67,45,29.97,29.89,7,2,12,0.00
2013-5-9,80,66,58,63,58,53,94,77,40,29.96,29.83,14,5,26,0.45
2013-5-10,67,62,54,63,58,-100,95,90,80,29.85,29.76,8,6,14,0.33
2013-5-11,63,53,46,53,45,32,93,77,40,30.01,29.85,13,6,29,0.04
2013-5-12,56,49,41,34,30,-100,69,50,35,30.11,30.01,11,5,20,0.00
2013-5-13,65,54,42,37,32,29,68,45,28,30.18,30.08,10,5,22,0.00
2013-5-14,83,66,48,61,48,36,72,54,43,30.09,29.78,15,8,27,0.00
2013-5-15,85,77,69,61,59,56,69,56,42,29.86,29.77,16,11,31,0.00
2013-5-16,75,65,65,65,41,-100,91,74,62,29.91,29.79,16,7,25,0.00
2013-5-17,79,68,60,65,57,-100,96,79,47,29.98,29.91,12,4,19,0.00
2013-5-18,77,70,64,67,63,61,91,80,66,29.98,29.89,6,2,15,0.00
2013-5-19,86,75,62,70,65,61,98,75,50,29.92,29.78,9,3,16,0.00
2013-5-20,84,76,68,71,69,67,97,79,59,29.89,29.77,13,8,23,0.00
2013-5-21,81,72,62,68,64,61,98,77,54,29.87,29.72,19,9,37,0.25
2013-5-22,74,69,64,64,62,58,93,78,65,29.73,29.67,14,8,23,0.09
2013-5-23,66,60,49,60,55,44,96,84,68,30.11,29.73,11,6,21,0.07
2013-5-24,66,54,42,45,41,37,94,65,34,30.32,30.11,8,4,15,0.00
2013-5-25,66,56,46,53,44,40,91,67,40,30.34,30.18,6,2,12,0.06
2013-5-26,67,58,50,57,51,47,93,81,60,30.26,30.10,9,3,17,0.12
2013-5-27,82,68,56,66,59,54,95,75,52,30.11,29.83,15,8,28,0.40
2013-5-28,82,72,63,68,64,61,95,78,57,29.93,29.82,18,9,33,0.23
2013-5-29,86,77,69,65,62,58,74,61,43,29.99,29.90,14,8,25,0.01
2013-5-30,84,78,70,70,66,63,81,68,56,30.01,29.88,15,9,32,0.01
2013-5-31,77,71,63,70,67,62,98,86,72,29.95,29.81,13,8,23,0.73